[ hide orbit diagram ]
For accurate long-term ephemerides, please instead use our Horizons system.This orbit viewer was implemented using two-body methods, and hence should not be used for determining accurate long-term trajectories (over several years or decades) or planetary encounter circumstances.
Orbital Elements at Epoch 2459200.5 (2020-Dec-17.0) TDB
Reference: JPL 19 (heliocentric ecliptic J2000)
Element | Value | Uncertainty (1-sigma) | Units |
e | .1358911745050065 | 5.5884e-08 | |
a | 2.429893589220884 | 1.0299e-08 | au |
q | 2.099692495459472 | 1.3444e-07 | au |
i | 4.224560636296062 | 6.0505e-06 | deg |
node | 321.28528976 | 4.5376e-05 | deg |
peri | 178.5050775723723 | 4.7325e-05 | deg |
M | 189.6266478157749 | 1.2994e-05 | deg |
tp | 2459855.254478110864 (2022-Oct-02.75447811) | 5.1144e-05 | TDB |
period | 1383.500465877055 3.79 | 8.796e-06 2.408e-08 | d yr |
n | .2602095256771611 | 1.6544e-09 | deg/d |
Q | 2.760094682982296 | 1.1699e-08 | au |
|
| | Orbit Determination Parameters
Additional Information
|
[ show covariance matrix ]
Physical Parameter Table
Parameter |
Symbol |
Value |
Units |
Sigma |
Reference |
Notes |
absolute magnitude |
H |
16.16 |
|
n/a |
E2021B55 |
|
|
103669 (2000 CW51) Discovered 2000-Feb-02 by LINEAR at Socorro |
Reference: 20051019/Numbers.arc | Last Updated: 2005-10-26 |
|
|